Location: Newark
(9.5333°N, 13.6833°W)
Time: 19:19:27
(UTC+00:00)

ISS - Visible Passes

Search period start: 17 February 2020 00:00
Search period end: 27 February 2020 00:00
Orbit: 416 x 422 km, 51.6° (Epoch: 17 February)

Date Brightness Start Highest point End Pass type
(mag) Time Alt. Az. Time Alt. Az. Time Alt. Az.
17 Feb -2.0 06:16:41 10° SSW 06:19:46 34° SE 06:22:50 10° ENE visible
18 Feb -0.7 05:30:09 10° SSE 05:32:14 16° SE 05:34:20 10° E visible
19 Feb -3.2 06:19:44 24° WSW 06:21:13 37° NW 06:24:22 10° NNE visible
20 Feb -1.6 05:35:48 20° NE 05:35:48 20° NE 05:36:59 10° NE visible
